Regional Weather Roundup
Issued by NWS Newport/Morehead, NC

Current Version | Previous Version | Graphics & Text | Print | Product List | Glossary On
Versions: 1 2 3 4 5 6 7 8 9 10 11 12 13 14 15 16 17 18 19 20 21 22 23 24 25 26 27 28 29 30 31 32 33 34 35 36 37 38 39 40 41 42 43 44 45 46 47 48 49 50
000 ASUS42 KMHX 300225 RWRMHX WEATHER ROUNDUP FOR EASTERN NORTH CAROLINA NATIONAL WEATHER SERVICE NEWPORT/MOREHEAD CITY NC 1000 PM EDT SAT AUG 29 2015 NOTE: "FAIR" INDICATES FEW OR NO CLOUDS BELOW 12,000 FEET WITH NO SIGNIFICANT WEATHER AND/OR OBSTRUCTIONS TO VISIBILITY NCZ015>017-031-032-045>047-102-103-300300- NORTH COAST CITY SKY/WX TMP DP RH WIND PRES REMARKS EDENTON CLOUDY 69 64 82 CALM 30.14S ELIZABETH CITY CLOUDY 74 66 76 NE7 30.14R KITTY HAWK CLOUDY 77 67 71 NE6 30.12R MANTEO CLOUDY 76 68 77 NE10 30.13R $$ NCZ045>047-081-094-103-104-300300- CENTRAL COAST CITY SKY/WX TMP DP RH WIND PRES REMARKS FRISCO MOCLDY 76 72 87 NE6 30.11R SWANQUARTER NOT AVBL $$ NCZ095-097-098-100-101-300300- SOUTHERN COAST CITY SKY/WX TMP DP RH WIND PRES REMARKS BEAUFORT MOCLDY 73 66 78 NE3 30.13R CEDAR ISLAND NOT AVBL JACKSONVILLE CLOUDY 77 62 59 NE5 30.13R PINEY ISLAND MOCLDY N/A N/A N/A N7 30.12R WILMINGTON MOCLDY 76 65 68 NE3 30.13R $$ NCZ011>013-027>030-043-044-078>080-089-090>093-098-300300- COASTAL PLAIN CITY SKY/WX TMP DP RH WIND PRES REMARKS AHOSKIE CLOUDY 69 63 83 CALM 30.16R CLINTON CLOUDY 71 65 82 CALM 30.15R ELIZABETHTOWN CLOUDY 73 65 75 CALM 30.14R GOLDSBORO CLOUDY 73 64 74 MISG 30.13R GREENVILLE CLOUDY 73 66 78 CALM 30.16S HAVELOCK CLOUDY 75 64 68 NE6 30.14R KENANSVILLE N/A 68 65 92 CALM 30.16R KINSTON NOT AVBL NEW BERN CLOUDY 74 64 71 E3 30.15R RICHLANDS CLOUDY 72 63 73 CALM 30.14R ROCKY MOUNT CLOUDY 74 62 66 CALM 30.15R WASHINGTON CLOUDY 69 65 86 CALM 30.15R WHITEVILLE CLOUDY 73 66 77 CALM 30.13R $$ AMZ130-135-150-152-154-156-158-170-250-252-270-ANZ085-086-088-633-658-670-300300- MARINE OBSERVATIONS STATION/POSITION TIME TEMP WIND PRES WAVE SWELL AIR SEA DIR/SP/G HT/PER HT/PER (UTC) (F) (DEG/KT/KT) (MB) (FT/S) (FT/S) CHESAPEAKE LIGHT 0200 76 90/ 11/ 12 1021.2 64 E VA BEACH 0150 78 79 60/ 16/ 17 1019.5 4/11 3/11 DUCK NOT AVBL 2 E DUCK 0111 78 N/A 4/11 2/11 OREGON INLET NOT AVBL 13E OREGON INLT 0200 78 N/A 5/11 3/11 HATTERAS CG NOT AVBL DIAMOND BUOY 0150 79 82 30/ 16/ 19 1019.0 5/11 3/11 CAPE LOOKOUT 0200 78 20/ 8/ 12 1019.8 BEAUFORT LAB NOT AVBL 30 SE NEW RVR IN 0108 80 81 50/ 12/ 16 1019.8 30 SE NEW RVR IN 0125 81 N/A 5/11 2/11 27 SE WRIGHTSVLE 0200 76 82 80/ 12/ 14 N/A 5 SE WRIGHTSVLE 0108 82 82 50/ 10/ 14 1019.6 225 S CAPE HAT 0150 83 84 200/ 6/ 6 1019.9 4/10 5/10 41 SE CHARLESTON 0150 82 85 60/ 10/ 12 1019.1 4/11 3/11 $$

USA.gov is the U.S. government's official web portal to all federal, state and local government web resources and services.